Hourly Weather Qarshi

Today, 7 August, Friday

Time Temperature Precipitation Wind Pressure Humidity
00:00 +28°C° 0 mm 3 mps 721 mmHg 27%
01:00 +27°C° 0 mm 3 mps 721 mmHg 28%
02:00 +26°C° 0 mm 3 mps 721 mmHg 29%
03:00 +26°C° 0 mm 3 mps 721 mmHg 29%
04:00 +25°C° 0 mm 3 mps 721 mmHg 30%
05:00 +27°C° 0 mm 4 mps 722 mmHg 27%
06:00 +29°C° 0 mm 5 mps 722 mmHg 24%
07:00 +32°C° 0 mm 6 mps 723 mmHg 21%
08:00 +35°C° 0 mm 6 mps 723 mmHg 19%
09:00 +38°C° 0 mm 6 mps 723 mmHg 17%
10:00 +41°C° 0 mm 7 mps 723 mmHg 14%
11:00 +41°C° 0 mm 6 mps 723 mmHg 14%
12:00 +42°C° 0 mm 6 mps 723 mmHg 13%
13:00 +44°C° 0 mm 6 mps 723 mmHg 13%
14:00 +43°C° 0 mm 7 mps 722 mmHg 13%
15:00 +43°C° 0 mm 8 mps 722 mmHg 14%
16:00 +43°C° 0 mm 8 mps 721 mmHg 14%
17:00 +40°C° 0 mm 8 mps 721 mmHg 16%
18:00 +36°C° 0 mm 7 mps 721 mmHg 18%
19:00 +34°C° 0 mm 6 mps 721 mmHg 19%
20:00 +33°C° 0 mm 6 mps 721 mmHg 20%
21:00 +32°C° 0 mm 6 mps 721 mmHg 21%
22:00 +30°C° 0 mm 5 mps 721 mmHg 22%
23:00 +30°C° 0 mm 6 mps 721 mmHg 24%

Tomorrow, 8 August, Saturday

Time Temperature Precipitation Wind Pressure Humidity
00:00 +29°C° 0 mm 7 mps 721 mmHg 26%
01:00 +28°C° 0 mm 7 mps 721 mmHg 28%
02:00 +27°C° 0 mm 6 mps 721 mmHg 29%
03:00 +26°C° 0 mm 6 mps 721 mmHg 30%
04:00 +25°C° 0 mm 5 mps 721 mmHg 31%
05:00 +27°C° 0 mm 5 mps 722 mmHg 29%
06:00 +28°C° 0 mm 5 mps 722 mmHg 28%
07:00 +30°C° 0 mm 5 mps 722 mmHg 27%
08:00 +32°C° 0 mm 5 mps 723 mmHg 24%
09:00 +34°C° 0 mm 5 mps 723 mmHg 22%
10:00 +36°C° 0 mm 5 mps 723 mmHg 19%
11:00 +36°C° 0 mm 5 mps 723 mmHg 18%
12:00 +37°C° 0 mm 5 mps 722 mmHg 17%
13:00 +37°C° 0 mm 5 mps 722 mmHg 17%
14:00 +37°C° 0 mm 5 mps 721 mmHg 17%
15:00 +37°C° 0 mm 5 mps 721 mmHg 17%
16:00 +37°C° 0 mm 5 mps 721 mmHg 18%
17:00 +35°C° 0 mm 5 mps 720 mmHg 19%
18:00 +33°C° 0 mm 4 mps 720 mmHg 21%
19:00 +30°C° 0 mm 4 mps 720 mmHg 23%
20:00 +29°C° 0 mm 3 mps 720 mmHg 24%
21:00 +28°C° 0 mm 3 mps 720 mmHg 25%
22:00 +27°C° 0 mm 3 mps 720 mmHg 26%
23:00 +26°C° 0 mm 3 mps 720 mmHg 29%

Day after tomorrow, 9 August, Sunday

Time Temperature Precipitation Wind Pressure Humidity
00:00 +25°C° 0 mm 2 mps 720 mmHg 31%
01:00 +24°C° 0 mm 2 mps 720 mmHg 33%
02:00 +23°C° 0 mm 2 mps 720 mmHg 35%
03:00 +21°C° 0 mm 2 mps 720 mmHg 38%
04:00 +20°C° 0 mm 2 mps 720 mmHg 40%
05:00 +24°C° 0 mm 1 mps 720 mmHg 35%
06:00 +26°C° 0 mm 1 mps 721 mmHg 31%
07:00 +29°C° 0 mm 1 mps 721 mmHg 26%
08:00 +31°C° 0 mm 2 mps 721 mmHg 24%
09:00 +34°C° 0 mm 2 mps 721 mmHg 21%
10:00 +36°C° 0 mm 3 mps 721 mmHg 19%
11:00 +37°C° 0 mm 3 mps 721 mmHg 18%
12:00 +38°C° 0 mm 3 mps 721 mmHg 16%
13:00 +38°C° 0 mm 3 mps 721 mmHg 15%
14:00 +38°C° 0 mm 4 mps 720 mmHg 15%
15:00 +40°C° 0 mm 4 mps 720 mmHg 15%
16:00 +40°C° 0 mm 4 mps 719 mmHg 15%
17:00 +36°C° 0 mm 4 mps 719 mmHg 18%
18:00 +34°C° 0 mm 4 mps 719 mmHg 20%
19:00 +30°C° 0 mm 4 mps 719 mmHg 23%
20:00 +29°C° 0 mm 3 mps 719 mmHg 25%
21:00 +28°C° 0 mm 3 mps 719 mmHg 26%
22:00 +27°C° 0 mm 3 mps 719 mmHg 28%
23:00 +26°C° 0 mm 2 mps 719 mmHg 29%

10 August, Monday

Time Temperature Precipitation Wind Pressure Humidity
00:00 +26°C° 0 mm 2 mps 718 mmHg 30%
01:00 +25°C° 0 mm 2 mps 718 mmHg 31%
02:00 +24°C° 0 mm 2 mps 718 mmHg 32%
03:00 +23°C° 0 mm 2 mps 718 mmHg 33%
04:00 +23°C° 0 mm 2 mps 718 mmHg 34%
05:00 +25°C° 0 mm 2 mps 719 mmHg 30%
06:00 +28°C° 0 mm 2 mps 719 mmHg 26%
07:00 +31°C° 0 mm 2 mps 720 mmHg 21%
08:00 +34°C° 0 mm 2 mps 720 mmHg 19%
09:00 +37°C° 0 mm 3 mps 720 mmHg 16%
10:00 +40°C° 0 mm 4 mps 721 mmHg 13%
11:00 +41°C° 0 mm 4 mps 721 mmHg 13%
12:00 +42°C° 0 mm 4 mps 720 mmHg 12%
13:00 +42°C° 0 mm 5 mps 720 mmHg 11%
14:00 +42°C° 0 mm 5 mps 720 mmHg 11%
15:00 +42°C° 0 mm 5 mps 720 mmHg 11%
16:00 +42°C° 0 mm 6 mps 719 mmHg 11%
17:00 +39°C° 0 mm 5 mps 719 mmHg 13%
18:00 +35°C° 0 mm 4 mps 719 mmHg 15%
19:00 +31°C° 0 mm 3 mps 719 mmHg 17%
20:00 +30°C° 0 mm 3 mps 719 mmHg 18%
21:00 +29°C° 0 mm 3 mps 719 mmHg 20%
22:00 +28°C° 0 mm 3 mps 719 mmHg 22%
23:00 +27°C° 0 mm 3 mps 719 mmHg 24%

11 August, Tuesday

Time Temperature Precipitation Wind Pressure Humidity
00:00 +26°C° 0 mm 3 mps 719 mmHg 26%
01:00 +25°C° 0 mm 2 mps 719 mmHg 28%
02:00 +24°C° 0 mm 2 mps 719 mmHg 29%
03:00 +24°C° 0 mm 2 mps 719 mmHg 31%
04:00 +23°C° 0 mm 2 mps 719 mmHg 32%
05:00 +25°C° 0 mm 2 mps 719 mmHg 28%
06:00 +28°C° 0 mm 2 mps 720 mmHg 24%
07:00 +31°C° 0 mm 1 mps 721 mmHg 21%
08:00 +34°C° 0 mm 2 mps 721 mmHg 18%
09:00 +37°C° 0 mm 3 mps 721 mmHg 16%
10:00 +40°C° 0 mm 4 mps 721 mmHg 13%
11:00 +41°C° 0 mm 4 mps 721 mmHg 13%
12:00 +41°C° 0 mm 5 mps 721 mmHg 12%
13:00 +42°C° 0 mm 5 mps 720 mmHg 11%
14:00 +42°C° 0 mm 5 mps 720 mmHg 12%
15:00 +41°C° 0 mm 6 mps 720 mmHg 12%
16:00 +41°C° 0 mm 6 mps 720 mmHg 12%
17:00 +37°C° 0 mm 5 mps 720 mmHg 14%
18:00 +34°C° 0 mm 5 mps 720 mmHg 16%
19:00 +32°C° 0 mm 5 mps 720 mmHg 18%
20:00 +30°C° 0 mm 5 mps 720 mmHg 18%
21:00 +28°C° 0 mm 5 mps 720 mmHg 18%
22:00 +27°C° 0 mm 5 mps 721 mmHg 17%
23:00 +26°C° 0 mm 4 mps 720 mmHg 20%

12 August, Wednesday

Time Temperature Precipitation Wind Pressure Humidity
00:00 +25°C° 0 mm 4 mps 720 mmHg 22%
01:00 +24°C° 0 mm 3 mps 720 mmHg 24%
02:00 +22°C° 0 mm 3 mps 720 mmHg 26%
03:00 +21°C° 0 mm 3 mps 720 mmHg 28%
04:00 +21°C° 0 mm 3 mps 720 mmHg 30%
05:00 +24°C° 0 mm 2 mps 720 mmHg 27%
06:00 +26°C° 0 mm 2 mps 721 mmHg 24%
07:00 +29°C° 0 mm 2 mps 721 mmHg 21%
08:00 +32°C° 0 mm 4 mps 721 mmHg 18%
09:00 +35°C° 0 mm 5 mps 722 mmHg 15%
10:00 +39°C° 0 mm 6 mps 722 mmHg 12%
11:00 +40°C° 0 mm 6 mps 722 mmHg 11%
12:00 +41°C° 0 mm 6 mps 721 mmHg 10%
13:00 +43°C° 0 mm 7 mps 721 mmHg 10%
14:00 +43°C° 0 mm 7 mps 721 mmHg 10%
15:00 +41°C° 0 mm 7 mps 721 mmHg 11%
16:00 +41°C° 0 mm 7 mps 720 mmHg 11%
17:00 +39°C° 0 mm 7 mps 721 mmHg 13%
18:00 +36°C° 0 mm 7 mps 721 mmHg 15%
19:00 +33°C° 0 mm 6 mps 721 mmHg 17%
20:00 +32°C° 0 mm 6 mps 721 mmHg 18%
21:00 +29°C° 0 mm 6 mps 721 mmHg 18%
22:00 +28°C° 0 mm 5 mps 721 mmHg 19%
23:00 +27°C° 0 mm 5 mps 721 mmHg 19%
Show more